User: anonymous   Login
Location: Unspecified
(0.0000°N, 0.0000°E)
Time: 19:14:38
(UTC+00:00)
Language:

TBA - TO BE ASSIGNED - Orbit

View from above orbital plane
View from above orbital plane
View from above satellite
View from above satellite

Ground track
Ground track

The orbit is defined by the following mean orbital elements,

1 67834U          26145.42452441 +.00000000 +00000-0 +15044-3 0 00002
2 67834  43.0011 193.3431 0001253 268.1546  91.9162 15.27567128    08
Epoch (UTC): 25 May 2026 10:11:18
Eccentricity: 0.0001253
inclination: 43.0011°
perigee height: 482 km
apogee height: 484 km
right ascension of ascending node: 193.3431°
argument of perigee: 268.1546°
revolutions per day: 15.27567128
mean anomaly at epoch: 91.9162°

The dashed part of the orbit path shows where the satellite is in the earth's shadow,  

DLR